Flag for Denmark Weather past 2 weeks in Horsens, Denmark

Now
52 °F

Passing clouds.


Feels Like: 51 °F
Forecast: 50 / 62 °F
Wind: 5 mph from South

Location: Billund Lufthavn

Current Time: Aug 22, 2014 at 10:17:28 PM

Latest Report: Aug 22, 2014 at 9:50 PM


Visibility: N/A

Pressure: 29.68 "Hg

Humidity: 94%

Dew point: 50 °F

Location of HorsensLocation

Historic Weather in Horsens — Graph

°F

Horsens temperature yesterday

Maximum temperature yesterday: 61 °F (at 12:20 PM)
Minimum temperature yesterday: 46 °F (at 6:20 AM)
Average temperature yesterday: 53 °F

Past Weeks' High & Low Weather Summary

 TemperatureHumidityPressure
High73 °F (Aug 8, 2:50 PM)100% (Aug 8, 12:50 AM)29.98 "Hg (Aug 8, 12:50 AM)
Low46 °F (Aug 15, 4:20 AM)36% (Aug 8, 4:20 PM)29.30 "Hg (Aug 18, 8:50 AM)
Average58 °F82%29.69 "Hg
* Reported Aug 7 9:20 PM — Aug 22 9:20 PM, Horsens, Weather by CustomWeather, © 2014

Note: Actual official high and low records may vary slightly from our data, if they occured in-between our weather recording intervals... More about our weather records

Advertising

Horsens weather history for previous 24 hours

 ConditionsComfort  
Time TempWeatherWind HumidityBarometerVisibility
9:20 PM
Aug 22
54 °FBroken clouds.3 mph94%29.68 "HgN/A
8:50 PM54 °FBroken clouds.3 mph94%29.68 "HgN/A
8:20 PM54 °FPartly sunny.6 mph94%29.68 "HgN/A
7:50 PM55 °FBroken clouds.7 mph94%29.68 "HgN/A
7:20 PM55 °FBroken clouds.6 mph94%29.68 "HgN/A
6:50 PM57 °FBroken clouds.8 mph88%29.68 "HgN/A
6:20 PM57 °FBroken clouds.7 mph88%29.68 "HgN/A
5:50 PM55 °FBroken clouds.9 mph94%29.68 "HgN/A
5:20 PM57 °FSprinkles. Partly sunny.9 mph82%29.68 "HgN/A
4:50 PM57 °FBroken clouds.10 mph77%29.68 "HgN/A
4:20 PM57 °FBroken clouds.8 mph77%29.68 "HgN/A
3:50 PM57 °FBroken clouds.12 mph77%29.71 "HgN/A
3:20 PM57 °FBroken clouds.10 mph77%29.71 "HgN/A
2:50 PM57 °FBroken clouds.10 mph72%29.71 "HgN/A
2:20 PM55 °FBroken clouds.10 mph82%29.71 "HgN/A
1:50 PM55 °FBroken clouds.10 mph88%29.71 "HgN/A
1:20 PM57 °FPartly sunny.12 mph77%29.71 "HgN/A
12:50 PM57 °FPartly sunny.12 mph77%29.71 "HgN/A
12:20 PM57 °FPartly sunny.10 mph77%29.71 "HgN/A
11:50 AM57 °FPartly sunny.9 mph77%29.71 "HgN/A
11:20 AM55 °FPartly sunny.9 mph82%29.71 "HgN/A
10:50 AM55 °FPartly sunny.9 mph88%29.71 "HgN/A
10:20 AM55 °FPartly sunny.12 mph88%29.71 "HgN/A
9:50 AM54 °FPartly sunny.6 mph94%29.71 "HgN/A
9:20 AM54 °FBroken clouds.7 mph94%29.71 "HgN/A
8:50 AM54 °FBroken clouds.9 mph94%29.71 "HgN/A
8:20 AM52 °FBroken clouds.8 mph100%29.71 "HgN/A
7:50 AM52 °FSprinkles. Broken clouds.7 mph94%29.71 "HgN/A
7:20 AM52 °FSprinkles. Broken clouds.6 mph94%29.74 "HgN/A
6:50 AM52 °FSprinkles. Partly cloudy.7 mph94%29.74 "HgN/A
6:20 AM52 °FSprinkles. Partly cloudy.7 mph94%29.74 "HgN/A
5:50 AM52 °FSprinkles. Partly cloudy.6 mph94%29.74 "HgN/A
5:20 AM52 °FPassing clouds.7 mph94%29.74 "HgN/A
4:20 AM52 °FPassing clouds.8 mph94%29.77 "HgN/A
3:50 AM50 °FPassing clouds.7 mph100%29.77 "HgN/A
3:20 AM50 °FPassing clouds.7 mph100%29.77 "HgN/A
2:50 AM50 °FPassing clouds.6 mph100%29.80 "HgN/A
2:20 AM50 °FPartly cloudy.7 mph94%29.80 "HgN/A
1:50 AM50 °FPartly cloudy.6 mph100%29.83 "HgN/A
1:20 AM50 °FPartly cloudy.8 mph94%29.83 "HgN/A
12:50 AM50 °FPartly cloudy.6 mph94%29.83 "HgN/A
12:20 AM52 °FPartly cloudy.6 mph94%29.83 "HgN/A
11:50 PM
Aug 21
52 °FPartly cloudy.6 mph94%29.83 "HgN/A
11:20 PM52 °FMostly cloudy.6 mph94%29.83 "HgN/A
10:20 PM52 °FMostly cloudy.5 mph94%29.83 "HgN/A
Weather by CustomWeather, © 2014

See weather overviewHow to use our weather pages